TimeBST,TemperatureF,Dew PointF,Humidity,Sea Level PressureIn,VisibilityMPH,Wind Direction,Wind SpeedMPH,Gust SpeedMPH,PrecipitationIn,Events,Conditions,WindDirDegrees,DateUTC
12:20 AM,59.0,59.0,100,29.74,6.2,WSW,6.9,-,N/A,,Mostly Cloudy,250,2013-08-15 23:20:00
12:50 AM,59.0,57.2,94,29.77,6.2,WNW,8.1,-,N/A,,Mostly Cloudy,290,2013-08-15 23:50:00
1:20 AM,57.2,55.4,94,29.77,6.2,West,6.9,-,N/A,,Scattered Clouds,260,2013-08-16 00:20:00
1:50 AM,57.2,53.6,88,29.77,6.2,West,6.9,-,N/A,,Scattered Clouds,260,2013-08-16 00:50:00
2:20 AM,55.4,51.8,88,29.77,6.2,West,6.9,-,N/A,,Scattered Clouds,260,2013-08-16 01:20:00
2:50 AM,53.6,51.8,94,29.77,6.2,West,4.6,-,N/A,,Scattered Clouds,270,2013-08-16 01:50:00
3:20 AM,53.6,51.8,94,29.77,6.2,West,9.2,-,N/A,,Scattered Clouds,260,2013-08-16 02:20:00
3:50 AM,55.4,51.8,88,29.80,6.2,WSW,6.9,-,N/A,,Mostly Cloudy,250,2013-08-16 02:50:00
4:20 AM,53.6,50.0,88,29.80,6.2,West,5.8,-,N/A,,Scattered Clouds,260,2013-08-16 03:20:00
4:50 AM,53.6,50.0,88,29.77,6.2,WSW,6.9,-,N/A,,Scattered Clouds,250,2013-08-16 03:50:00
5:20 AM,53.6,51.8,94,29.80,6.2,WSW,6.9,-,N/A,,Mostly Cloudy,250,2013-08-16 04:20:00
5:50 AM,53.6,51.8,94,29.80,6.2,WSW,8.1,-,N/A,,Scattered Clouds,240,2013-08-16 04:50:00
6:20 AM,55.4,51.8,88,29.80,6.2,Variable,3.5,-,N/A,,Mostly Cloudy,0,2013-08-16 05:20:00
6:50 AM,55.4,53.6,94,29.80,6.2,SW,3.5,-,N/A,,Mostly Cloudy,230,2013-08-16 05:50:00
7:20 AM,57.2,53.6,88,29.80,6.2,WSW,5.8,-,N/A,,Scattered Clouds,240,2013-08-16 06:20:00
7:50 AM,57.2,55.4,94,29.83,6.2,West,4.6,-,N/A,,Mostly Cloudy,260,2013-08-16 06:50:00
8:20 AM,59.0,55.4,88,29.83,6.2,West,6.9,-,N/A,,Scattered Clouds,260,2013-08-16 07:20:00
8:50 AM,60.8,53.6,77,29.83,6.2,West,11.5,-,N/A,,Scattered Clouds,270,2013-08-16 07:50:00
9:20 AM,60.8,55.4,82,29.83,6.2,West,9.2,-,N/A,,Scattered Clouds,260,2013-08-16 08:20:00
9:50 AM,62.6,55.4,77,29.83,6.2,West,11.5,-,N/A,,Scattered Clouds,260,2013-08-16 08:50:00
10:20 AM,62.6,53.6,72,29.83,6.2,West,10.4,-,N/A,,Scattered Clouds,260,2013-08-16 09:20:00
10:50 AM,62.6,55.4,77,29.83,6.2,WSW,10.4,-,N/A,,Scattered Clouds,250,2013-08-16 09:50:00
11:20 AM,62.6,53.6,72,29.83,6.2,WSW,12.7,-,N/A,,Scattered Clouds,250,2013-08-16 10:20:00
11:50 AM,62.6,53.6,72,29.83,6.2,WSW,12.7,-,N/A,,Mostly Cloudy,250,2013-08-16 10:50:00
12:20 PM,62.6,55.4,77,29.83,6.2,SW,16.1,-,N/A,,Mostly Cloudy,220,2013-08-16 11:20:00
12:50 PM,64.4,55.4,73,29.83,6.2,WSW,16.1,-,N/A,,Mostly Cloudy,240,2013-08-16 11:50:00
1:20 PM,64.4,55.4,73,29.83,6.2,SW,16.1,-,N/A,,Mostly Cloudy,230,2013-08-16 12:20:00
1:50 PM,64.4,55.4,73,29.83,6.2,SW,16.1,-,N/A,,Mostly Cloudy,220,2013-08-16 12:50:00
2:20 PM,64.4,55.4,73,29.83,6.2,SW,16.1,-,N/A,,Mostly Cloudy,230,2013-08-16 13:20:00
2:50 PM,64.4,55.4,73,29.86,6.2,SW,17.3,-,N/A,,Mostly Cloudy,220,2013-08-16 13:50:00
3:20 PM,60.8,55.4,82,29.86,4.3,WSW,16.1,-,N/A,Rain,Light Rain,240,2013-08-16 14:20:00
3:50 PM,59.0,57.2,94,29.86,6.2,SW,9.2,-,N/A,,Mostly Cloudy,230,2013-08-16 14:50:00
4:20 PM,60.8,57.2,88,29.86,6.2,SW,12.7,-,N/A,,Mostly Cloudy,220,2013-08-16 15:20:00
4:50 PM,62.6,57.2,82,29.86,6.2,SW,12.7,-,N/A,,Scattered Clouds,230,2013-08-16 15:50:00
5:20 PM,62.6,55.4,77,29.86,6.2,WSW,10.4,-,N/A,,Mostly Cloudy,250,2013-08-16 16:20:00
5:50 PM,62.6,55.4,77,29.86,6.2,WSW,11.5,-,N/A,,Mostly Cloudy,250,2013-08-16 16:50:00
6:20 PM,64.4,53.6,68,29.86,6.2,West,11.5,-,N/A,,Scattered Clouds,260,2013-08-16 17:20:00
6:50 PM,62.6,51.8,68,29.86,6.2,West,12.7,-,N/A,,Scattered Clouds,260,2013-08-16 17:50:00
7:20 PM,62.6,51.8,68,29.86,6.2,WSW,12.7,-,N/A,,Partly Cloudy,240,2013-08-16 18:20:00
7:50 PM,60.8,51.8,72,29.86,6.2,WSW,11.5,-,N/A,,Partly Cloudy,250,2013-08-16 18:50:00
8:20 PM,57.2,50.0,77,29.86,-9999.0,WSW,6.9,-,N/A,,Clear,240,2013-08-16 19:20:00
8:50 PM,53.6,50.0,88,29.86,6.2,SW,8.1,-,N/A,,Partly Cloudy,230,2013-08-16 19:50:00
9:20 PM,57.2,51.8,82,29.86,-9999.0,SSW,8.1,-,N/A,,Clear,210,2013-08-16 20:20:00
9:50 PM,55.4,53.6,94,29.86,-9999.0,SW,6.9,-,N/A,,Clear,230,2013-08-16 20:50:00
10:20 PM,55.4,53.6,94,29.86,-9999.0,SW,5.8,-,N/A,,Clear,230,2013-08-16 21:20:00
10:50 PM,53.6,51.8,94,29.86,-9999.0,WSW,3.5,-,N/A,,Clear,240,2013-08-16 21:50:00
11:20 PM,55.4,51.8,88,29.86,-9999.0,Variable,2.3,-,N/A,,Clear,0,2013-08-16 22:20:00
11:50 PM,53.6,51.8,94,29.83,-9999.0,Variable,2.3,-,N/A,,Clear,0,2013-08-16 22:50:00